Regional Weather Roundup
Issued by NWS

Home | Current Version | Previous Version | Text Only | Print | Product List | Glossary Off
Versions: 1 2 3 4 5 6 7 8 9 10 11 12 13 14 15 16 17 18 19 20 21 22 23 24 25 26 27 28 29 30 31 32 33 34 35 36 37 38 39 40 41 42 43 44 45 46 47 48 49 50

000
ASUS43 KMKX 270400
RWRWI

WISCONSIN REGIONAL WEATHER ROUNDUP
NATIONAL WEATHER SERVICE MILWAUKEE/SULLIVAN WI
1100 PM CDT SUN APR 26 2015

NOTE: "FAIR" INDICATES FEW OR NO CLOUDS BELOW 12,000 FEET WITH NO
SIGNIFICANT WEATHER AND/OR OBSTRUCTIONS TO VISIBILITY.

WIZ001-002-006>008-014>016-023>028-270500-
NORTHWEST WISCONSIN

CITY           SKY/WX    TMP DP  RH WIND       PRES   REMARKS
SUPERIOR ARPT  CLEAR     33  30  90 CALM      30.19S
ASHLAND        CLEAR     34  31  88 N3        30.19R
HAYWARD        CLEAR     34  26  72 CALM      30.16R
SIREN          CLEAR     40  25  55 CALM      30.16R
CUMBERLAND     CLEAR     43  23  45 NE3       30.14S
RICE LAKE      CLEAR     43  28  57 CALM      30.16R
CHETEK         CLEAR     44  28  52 N5        30.14S
LADYSMITH      CLEAR     42  26  54 N7        30.15S
EAU CLAIRE     NOT AVBL
MENOMONIE      CLEAR     49  24  36 N7        30.13R
NEW RICHMOND   CLEAR     46  25  43 NE7       30.15R
OSCEOLA        CLEAR     48  25  40 E3        30.17R
$$

WIZ003>005-009-010-017-018-270500-
NORTH CENTRAL WISCONSIN

CITY           SKY/WX    TMP DP  RH WIND       PRES   REMARKS
MANITOWISH WTR CLEAR     37  26  64 CALM      30.13S
ARBOR VITAE    CLEAR     42  28  57 NE5       30.13S
WOODRUFF       CLEAR     42  28  57 NE5       30.13S
RHINELANDER    CLEAR     40  29  64 N3        30.13R
EAGLE RIVER    CLEAR     38  26  62 N3        30.12S
LAND O LAKES   CLEAR     35  28  75 CALM      30.14R
PHILLIPS       CLEAR     39  26  59 N5        30.13R
TOMAHAWK       CLEAR     41  29  61 CALM      30.12S
MEDFORD        CLEAR     41  28  59 N8        30.11R
MERRILL        CLEAR     44  30  58 NE6       30.11R
$$

WIZ029-030-035-036-043>047-270500-
CENTRAL WISCONSIN

CITY           SKY/WX    TMP DP  RH WIND       PRES   REMARKS
WAUSAU         CLEAR     47  29  49 N9        30.09R
MOSINEE        CLEAR     46  28  49 N12G17    30.11R
MARSHFIELD     CLEAR     48  27  44 NE9       30.10R
STEVENS POINT  CLEAR     43  27  53 E5        30.10R
WAUPACA        CLEAR     47  30  51 NE3       30.10R
WAUTOMA        NOT AVBL
WISC RAPIDS    CLEAR     46  24  42 NE8       30.10R
CAMP DOUGLAS   NOT AVBL
$$

WIZ011>013-019>022-031-037>040-048>050-270500-
NORTHEAST WISCONSIN

CITY           SKY/WX    TMP DP  RH WIND       PRES   REMARKS
ANTIGO         CLEAR     42  29  59 N10       30.10S
SHAWANO        CLEAR     43  33  68 CALM      30.10R
OCONTO         CLEAR     37  31  78 CALM      30.09S
STURGEON BAY   MOCLDY    45  28  53 N12G18    30.09S
GREEN BAY      CLEAR     46  33  60 NE10      30.08S
MANITOWOC      NOT AVBL
APPLETON       CLEAR     45  28  53 CALM      30.09R
CLINTONVILLE   CLEAR     43  32  65 CALM      30.09S
OSHKOSH        CLEAR     44  32  62 E3        30.09R
$$

WIZ032>034-041-042-053>061-270500-
SOUTHWEST WISCONSIN

CITY           SKY/WX    TMP DP  RH WIND       PRES   REMARKS
LA CROSSE      CLEAR     54  25  32 NE10      30.09R
SPARTA         CLEAR     48  24  38 N7        30.09R
VIROQUA        CLEAR     46  27  48 N9        30.07R
BOSCOBEL       CLEAR     41  31  67 CALM      30.06S
PRAIRIE DU CHI CLEAR     44  32  63 CALM      30.06S
PLATTEVILLE    CLEAR     46  30  54 NW3       30.04S
$$

WIZ056-057-062-063-064-067-068-270500-
SOUTH CENTRAL WISCONSIN

CITY           SKY/WX    TMP DP  RH WIND       PRES   REMARKS
REEDSBURG      CLEAR     50  27  40 NE3       30.05R
BARABOO/DELLS  CLEAR     47  26  43 E7        30.05R
LONE ROCK      NOT AVBL
MINERAL POINT  CLEAR     45  28  53 NW3       30.04S
MADISON        CLEAR     45  28  51 E9        30.07R
MIDDLETON      CLEAR     49  28  44 E16       30.05R
WATERTOWN      CLEAR     41  29  64 E5        30.06S
MONROE         CLEAR     52  27  37 W6        30.03R
JANESVILLE     CLEAR     41  28  60 E7        30.06R
$$

WIZ051-052-058>065-066-070>072-270500-
SOUTHEAST WISCONSIN

CITY           SKY/WX    TMP DP  RH WIND       PRES   REMARKS
MILWAUKEE      CLEAR     42  29  59 N12       30.07R
WAUKESHA       CLEAR     39  28  65 N5        30.08R
MILWAUKEE/TIMM CLEAR     41  28  60 N6        30.07S
RACINE         CLEAR     41  31  67 N12       30.07R
BURLINGTON     CLEAR     38  26  60 CALM      30.06R
KENOSHA        CLEAR     40  30  67 N8        30.06R WCI  34
FOND DU LAC    CLEAR     41  29  62 E6        30.09R
SHEBOYGAN      CLEAR     39  31  72 N7        30.07S WCI  34
WEST BEND      CLEAR     39  28  65 N5        30.07S
JUNEAU         CLEAR     42  30  61 NE13      30.07S
$$

LSZ147-162-270500-
LAKE SUPERIOR

STATION/POSITION TIME  TEMP    WIND        PRES    WAVE
                       AIR SEA DIR/SP/G            HT/PER
                 (UTC) (F)     (DEG/KT/KT) (MB)    (FT/S)
W MID LAKE BUOY  0250   36 35  300/  6/  8 1023.2R   1
DEVILS ISLAND    0300   38      30/  5/  5 1023.0R
PORT WING        0300   35      CALM  /  1 1022.0
SAXON HARBOR     0300   33        CALM     1021.7R
$$

LMZ867-665-643>646-270500-
LAKE MICHIGAN

STATION/POSITION TIME  TEMP    WIND        PRES    WAVE
                       AIR SEA DIR/SP/G            HT/PER
                 (UTC) (F)     (DEG/KT/KT) (MB)    (FT/S)
CHAMBERS ISLAND  0300   41     350/  5/  6 1019.0S
NORTHPORT PIER   0300   41     320/  6/  8 1018.3F
SISTER BAY       0317   44     360/ 14/ 17   N/A
KEWAUNEE LAKESHO 0300   43     360/  2/  7 1017.6R
SHEBOYGAN LAKESH 0300   41      10/ 14/ 16 1019.0R
PORT WASHINGTON  0340   44      10/  8/ 13 1018.6S
MILWAUKEE LAKESH 0300   44      10/ 12/ 15   N/A
KENOSHA   LAKESH 0300   45     360/ 17/ 19 1017.3R
$$

TC  - TEMPERATURE IN CELSIUS
VSB - VISIBILITY IN STATUTE MILES
WCI - WIND CHILL INDEX
HX  - HEAT INDEX



USA.gov is the U.S. government's official web portal to all federal, state and local government web resources and services.